World > North America > United States > Florida   City of Fort Myers, Florida

Fort Myers, Florida Regional Weather

Lat: 26.63N, Lon: 81.85W
Wx Zone: FLZ165Web Search

If you are on your PC, you can easily pass this page to your phone by scanning the QR Code near the bottom with your camera.

Feedback
Fort Myers Weather Map
UTC Time: 3/2/2021, 04:58
Your Time:

Fort Myers, FL Regional Weather

Expires:202103020500;;341906
ASUS42 KTBW 020418
RWRFL 
FLORIDA REGIONAL WEATHER ROUNDUP
NATIONAL WEATHER SERVICE TAMPA BAY RUSKIN FL
1100 PM EST MON MAR 01 2021

NOTE: "FAIR" INDICATES FEW OR NO CLOUDS BELOW 12,000 FEET WITH NO
SIGNIFICANT WEATHER AND/OR OBSTRUCTIONS TO VISIBILITY.


FLZ066-069-070-075>078-162-262-165-265-020500-
SOUTHWEST FLORIDA AND KEYS
  
CITY           SKY/WX    TMP DP  RH WIND       PRES   REMARKS
PUNTA GORDA    PTCLDY    73  71  93 SW3       30.09S                  
FT MYERS       CLEAR     73  72  96 SW3       30.08R                  
SOUTHWEST INTL CLEAR     72  69  90 CALM      30.09R                  
NAPLES         CLEAR     74  70  87 CALM      30.08S                  
MARCO ISLAND   PTCLDY    74  72  93 CALM      30.10R                  
IMMOKALEE      CLOUDY    72  68  88 CALM      30.08F                  
MARATHON       CLEAR     75  70  84 SE8       30.07S                  
KEY WEST NAS   PTCLDY    76  72  87 E13       30.07S                  
KEY WEST INTL  PTCLDY    78  71  79 SE12      30.07S                  

STATION/POSITION SKY/WX   TEMP    WIND        PRES    WAVE   SWELL
                          AIR SEA DIR/SP/G            HT/PER HT/PER
                          (F)     (DEG/KT/KT) (MB)    (FT/S) (FT/S)
NAPLES                     80 77  240/  4/  5 1019.6R
26.0N   85.6W              78 80              1018.4S   3/ 7   3/ 7
DRY TORTUGAS     NOT AVBL
SAND KEY                   77     110/ 14/ 16 1018.6R
SOMBRERO KEY               77     110/ 11/ 13 1018.8F
LONG KEY                   77                 1018.6F

$$

SKY/WX - Weather  TMP - Temperature  DP - Dew Point  RH - Relative Humidity
WIND - Wind Direction/Speed PRES - Barometric Pressure VSB - Visibility
WCI - Wind Chill Index E13G22 Wind - East Wind 13 mph/Gusts of 22 mph